User: anonymous   Login
Location: Im Fang
(46.6019°N, 7.2397°E)
Time: 08:25:46
(UTC+00:00)
Language:

NUDT-PHONESAT - Orbit

View from above orbital plane
View from above orbital plane
View from above satellite
View from above satellite

Ground track
Ground track

The orbit data is extracted from the following two-line orbital elements,

1 40900U 15049B   21130.75357382  .00002440  00000-0  97130-4 0  9993
2 40900  97.4216 145.1209 0009971 273.4144 202.0455 15.26182000313074
Epoch (UTC): 10 May 2021 18:05:08
Eccentricity: 0.0009971
inclination: 97.4216°
perigee height: 480 km
apogee height: 494 km
right ascension of ascending node: 145.1209°
argument of perigee: 273.4144°
revolutions per day: 15.26182000
mean anomaly at epoch: 202.0455°
orbit number at epoch: 31307

The dashed part of the orbit path shows where the satellite is in the earth's shadow,  

DLR